Location: Sternwarte-Kraichtal
(49.1689°N, 8.6996°E)
Time: 19:52:48
(UTC+02:00)

Vanguard 2 Rocket - Pass Details

Date: 30 May 2022
Orbit: 553 x 3323 km, 32.9° (Epoch: 02 July)

Event Time Altitude Azimuth Distance (km) Brightness Sun altitude
Rises 10:03:52 0° 172° (S) 6,843 11.6 42.3°
Reaches altitude 10° 10:14:41 10° 143° (SE) 6,222 11.9 44.0°
Maximum altitude 10:18:52 11° 131° (SE) 6,185 12.1 44.7°
Drops below altitude 10° 10:23:03 10° 118° (ESE) 6,268 12.2 45.3°
Sets 10:33:55 0° 91° (E) 7,005 12.0 46.9°
